Terug naar catalogus

STARLINK-35092

ActiefCommunicatieVLEO
NORAD 65342·PAYLOAD·🇺🇸 United States

Gelanceerd Aug 27, 2025 vanaf Cape Canaveral Space Force Station

Loading…

Volgende Passages (komende 24 uur)

TLE

VersSource: CelesTrak SupGP

Epoch: Sep 15, 2026, 03:04 UTC

1 65342C 25189V   26258.12826389 -.00004749  00000+0 -15284-3 0  2583
2 65342  53.1587  45.0950 0001466  84.5862 323.7814 15.31675348    16

Volg STARLINK-35092 in realtime met AllMySat

Download on the App Store